Location: Fundy National Park
(45.6138°N, 65.0316°W)
Time: 10:55:38
(UTC-04:00)

BlueWalker 3 - Pass Details

Date: 04 December 2022
Orbit: 499 x 517 km, 53.2° (Epoch: 01 February)

Event Time Altitude Azimuth Distance (km) Brightness Sun altitude
Rises 17:47:03 0° 293° (WNW) 2,630 6.4 -11.9°
Maximum altitude 17:52:54 27° 5° (N) 1,014 3.2 -12.8°
Enters shadow 17:54:41 19° 46° (NE) 1,257 3.4 -13.1°
